Regional Weather Roundup
Issued by NWS

Home | Current Version | Previous Version | Graphics & Text | Print | Product List | Glossary On
Versions: 1 2 3 4 5 6 7 8 9 10 11 12 13 14 15 16 17 18 19 20 21 22 23 24 25 26 27 28 29 30 31 32 33 34 35 36 37 38 39 40 41 42 43 44 45 46 47 48 49 50
000
ASUS43 KMPX 222001
RWRMN
WEATHER ROUNDUP FOR MINNESOTA
NATIONAL WEATHER SERVICE TWIN CITIES/CHANHASSEN MN
200 PM CST SAT NOV 22 2014


NOTE: "FAIR" INDICATES FEW OR NO CLOUDS BELOW 12,000 FEET WITH NO
SIGNIFICANT WEATHER AND/OR OBSTRUCTIONS TO VISIBILITY. N/A MEANS
CURRENT SKY AND/OR WEATHER CONDITIONS ARE NOT AVAILABLE.

MNZ060>063-068>070-222100-
   Twin Cities Metro

CITY           SKY/WX    TMP DP  RH WIND       PRES   REMARKS
TWIN CITIES    CLOUDY    35  33  92 S8        29.68F FOG     WCI  29
ST PAUL        CLOUDY    35  33  92 S10       29.70F FOG     WCI  27
CRYSTAL        CLOUDY    36  33  89 S9        29.67F FOG
LAKEVILLE      CLOUDY    34  34 100 S7        29.68F FOG     WCI  28
EDEN PRAIRIE   CLOUDY    35  34  96 S12       29.67F FOG     WCI  27
SOUTH ST PAUL  CLOUDY    36  34  92 S5        29.69F FOG
LAKE ELMO      CLOUDY    34  34 100 S8        29.70F FOG     WCI  27
$$
MNZ001>005-007-008-013>017-022>024-027-028-222100-
   Northwest Minnesota

CITY           SKY/WX    TMP DP  RH WIND       PRES   REMARKS
BEMIDJI        SUNNY     41  30  65 S7        29.53F
HALLOCK        PTSUNNY   36  30  80 E6        29.50F
ROSEAU         CLOUDY    36  30  80 E7        29.54S
WARROAD        CLOUDY    32  28  86 NE7       29.55F FOG     WCI  26
THIEF RVR FALL PTSUNNY   34  28  80 E8        29.52F WCI  27
CROOKSTON      PTSUNNY   37  32  81 SE10      29.51F
FOSSTON        MOSUNNY   37  30  75 S5        29.52F
DETROIT LAKES  PTSUNNY   41  32  70 SE7       29.54S
MOORHEAD       CLOUDY    43  34  70 SE9       29.52F
PARK RAPIDS    MOSUNNY   45  30  55 SE9       29.54F
MAHNOMEN       FAIR      39  32  75 S6        29.52F
$$
MNZ006-009>011-018-025>026-222100-
   North Central Minnesota

CITY           SKY/WX    TMP DP  RH WIND       PRES   REMARKS
BAUDETTE       CLOUDY    36  29  75 E5        29.54F
FLAG ISLAND    CLOUDY    32  27  80 CALM      29.55F
INTL FALLS     CLOUDY    36  29  75 SE5       29.57F
WASKISH        SUNNY     45  34  65 CALM      29.54F
BIG FORK       SUNNY     43  30  61 S3        29.56F
LONGVILLE      SUNNY     43  30  61 MISG      29.56F
GRAND RAPIDS   SUNNY     39  28  65 S12       29.58F
CRANE LAKE     CLOUDY    36  30  80 CALM      29.62S
ORR            PTSUNNY   37  28  70 CALM      29.57S
COOK           MOSUNNY   39  30  70 CALM      29.59F
WALKER         FAIR      42  29  60 S5        29.55F
$$
MNZ012-019>021-037-222100-
   Northeast Minnesota

CITY           SKY/WX    TMP DP  RH WIND       PRES   REMARKS
DULUTH         CLOUDY    34  30  85 SW9       29.63S FOG     WCI  27
ELY            CLOUDY    34  30  86 S3        29.60S FOG
HIBBING        SUNNY     41  28  60 S8        29.59F
EVELETH        SUNNY     36  32  87 CALM      29.61F
DULUTH HARBOR  CLOUDY    37  32  81 CALM      29.66F
TWO HARBORS    SUNNY     39  32  75 SW9       29.62S
SILVER BAY     SUNNY     39  30  70 S5        29.61F
GRAND MARAIS     N/A     37  32  82 W6        29.64S
$$
MNZ029>031-032-039>041-046>048-054>057-064-222100-
   West Central Minnesota

CITY           SKY/WX    TMP DP  RH WIND       PRES   REMARKS
FERGUS FALLS   CLOUDY    37  28  70 SE10      29.55F
WHEATON        PTSUNNY   34  28  80 SE13      29.53F WCI  25
MORRIS         PTSUNNY   36  30  80 SE16      29.53F
ALEXANDRIA     PTSUNNY   37  29  72 SE12      29.57F
ELBOW LAKE       N/A     35  30  83 SE10      29.53F WCI  27
WADENA         MOSUNNY   43  30  61 SE6       29.55F
GLENWOOD       PTSUNNY   36  30  80 SE10      29.58F
APPLETON       PTSUNNY   39  30  70 SE12      29.55F
BENSON         CLOUDY    34  32  93 SE10      29.57F FOG     WCI  26
ORTONVILLE     PTSUNNY   37  30  75 SE13      29.52F
MADISON        PTSUNNY   39  36  87 SE12      29.54F
WILLMAR        FOG       34  32  93 SE15      29.62F VSB 1/4 WCI  24
$$
MNZ033>034-036-042>043-049>051-058-059-222100-
   Central Minnesota

CITY           SKY/WX    TMP DP  RH WIND       PRES   REMARKS
ST CLOUD       CLOUDY    34  32  92 S10       29.64F FOG     WCI  26
SAUK CENTRE    FOG       31  30  97 SE8       29.61F VSB 3/4 WCI  23
PAYNESVILLE    FOG       30  30 100 E6        29.62F VSB 3/4 WCI  24
AITKIN         SUNNY     43  30  61 S9        29.59F
PINE RIVER     SUNNY     43  30  61 SE8       29.61F
BRAINERD       SUNNY     37  28  70 S8        29.60F
STAPLES        SUNNY     43  28  56 S10       29.57F
LONG PRAIRIE   FAIR      32  30  93 SE7       29.59F WCI  26
LITTLE FALLS   MOSUNNY   36  30  80 S7        29.62F
LITCHFIELD     FOG       34  34 100 SE6       29.64F VSB 3/4 WCI  29
BUFFALO        CLOUDY    34  32  93 SE5       29.67F FOG     WCI  30
MAPLE LAKE     CLOUDY    35  34  96 S7        29.66F FOG     WCI  29
$$
MNZ037-044-045-052-053-222100-
   East Central Minnesota

CITY           SKY/WX    TMP DP  RH WIND       PRES   REMARKS
PRINCETON      CLOUDY    36  34  93 S8        29.66F FOG
MORA           CLOUDY    34  30  86 S8        29.67F FOG     WCI  27
RUSH CITY      CLOUDY    35  32  89 S7        29.67F WCI  29
MOOSE LAKE     CLOUDY    36  32  87 S5        29.63S HAZE
HINCKLEY       CLOUDY    36  32  87 S7        29.66F FOG
CLOQUET        PTSUNNY   34  30  86 SW7       29.63F FOG     WCI  28
MCGREGOR       SUNNY     41  32  70 SE8       29.61F
$$
MNZ071>073-080-081-089-090-097-098-222100-
   Southwest Minnesota

CITY           SKY/WX    TMP DP  RH WIND       PRES   REMARKS
MONTEVIDEO     MOSUNNY   39  34  81 S9        29.58F
GRANITE FALLS  MOSUNNY   37  33  87 SE16      29.60F FOG
CANBY          PTSUNNY   39  33  77 S12       29.55F
MARSHALL       MOSUNNY   37  32  81 S13       29.57F
REDWOOD FALLS  CLOUDY    37  34  89 S13       29.62F FOG
OLIVIA         CLOUDY    36  32  87 SE13      29.60F FOG
PIPESTONE      FOG       34  34 100 S14       29.57F VSB 1/2 WCI  24
WINDOM         CLOUDY    36  36 100 S8G18     29.62F FOG
WORTHINGTON    CLOUDY    36  36 100 S18G25    29.62F VSB 3/4
JACKSON        CLOUDY    36  34  93 S15       29.64F FOG
TRACY          PTSUNNY   37  35  90 S18G26    29.58F FOG
SLAYTON        FOG       34  34 100 S14       29.60F VSB 3/4 WCI  25
$$
MNZ065>067-074>077-082>085-091>093-222100-
   South Central Minnesota

CITY           SKY/WX    TMP DP  RH WIND       PRES   REMARKS
MANKATO        CLOUDY    36  32  87 S14G21    29.67F
NEW ULM          N/A     36  36 100 S15       29.64F FOG
ST JAMES       CLOUDY    37  36  93 S12       29.66F FOG
FAIRMONT       CLOUDY    36  34  93 S15       29.67F
GLENCOE        CLOUDY    36  35  98 S10       29.65F FOG
FARIBAULT      CLOUDY    36  34  93 S12       29.69F FOG
OWATONNA       CLOUDY    36  34  93 S12       29.70S FOG
WASECA         CLOUDY    36  32  87 S15       29.70S FOG
ALBERT LEA     FOG       37  37 100 S9G17     29.69F VSB 1/2
$$
MNZ078>079-086>088-094>096-222100-
   Southeast Minnesota

CITY           SKY/WX    TMP DP  RH WIND       PRES   REMARKS
ROCHESTER      FOG       36  35  96 S17       29.71F VSB 1
RED WING         N/A     37  36  93 S3        29.71S FOG
STANTON        CLOUDY    37  34  89 S10G16    29.69F FOG
DODGE CENTER   CLOUDY    36  36 100 SW12      29.70S FOG
WINONA         CLOUDY    41  36  81 SW3       29.74F
AUSTIN         FOG       36  36 100 S10G20    29.70F VSB 1/4
PRESTON        FOG       35  35  98 S14       29.73F VSB 1/2 WCI  26
$$
ABBREVIATIONS USED IN REMARKS
   TC - TEMPERATURES IN CELSIUS
  WCI - WIND CHILL INDEX
   HX - HEAT INDEX
  VSB - VISIBILITY
$$


USA.gov is the U.S. government's official web portal to all federal, state and local government web resources and services.